Year,Month,Day,Hour,Minute,Value (Times are PST for temperature in C)
2015,10,11,00,00,12.90
2015,10,11,00,01,12.90
2015,10,11,00,02,12.90
2015,10,11,00,03,12.90
2015,10,11,00,04,12.90
2015,10,11,00,05,12.90
2015,10,11,00,06,12.90
2015,10,11,00,07,12.90
2015,10,11,00,08,12.90
2015,10,11,00,09,12.90
2015,10,11,00,10,12.90
2015,10,11,00,11,12.90
2015,10,11,00,12,12.90
2015,10,11,00,13,12.90
2015,10,11,00,14,12.90
2015,10,11,00,15,12.90
2015,10,11,00,16,12.90
2015,10,11,00,17,12.90
2015,10,11,00,18,12.90
2015,10,11,00,19,12.90
2015,10,11,00,20,12.90
2015,10,11,00,21,12.90
2015,10,11,00,22,12.90
2015,10,11,00,23,12.90
2015,10,11,00,24,12.90
2015,10,11,00,25,12.90
2015,10,11,00,26,12.90
2015,10,11,00,27,12.90
2015,10,11,00,28,13.00
2015,10,11,00,29,13.00
2015,10,11,00,30,13.00
2015,10,11,00,31,13.00
2015,10,11,00,32,13.10
2015,10,11,00,33,13.10
2015,10,11,00,34,13.10
2015,10,11,00,35,13.10
2015,10,11,00,36,13.10
2015,10,11,00,37,13.10
2015,10,11,00,38,13.10
2015,10,11,00,39,13.10
2015,10,11,00,40,13.10
2015,10,11,00,41,13.10
2015,10,11,00,42,13.10
2015,10,11,00,43,13.10
2015,10,11,00,44,13.10
2015,10,11,00,45,13.10
2015,10,11,00,46,13.00
2015,10,11,00,47,13.00
2015,10,11,00,48,13.00
2015,10,11,00,49,13.00
2015,10,11,00,50,13.00
2015,10,11,00,51,12.90
2015,10,11,00,52,12.90
2015,10,11,00,53,12.90
2015,10,11,00,54,12.90
2015,10,11,00,55,12.90
2015,10,11,00,56,12.90
2015,10,11,00,57,12.90
2015,10,11,00,58,12.90
2015,10,11,00,59,12.90
2015,10,11,01,00,12.90
2015,10,11,01,01,13.00
2015,10,11,01,02,13.00
2015,10,11,01,03,13.00
2015,10,11,01,04,13.00
2015,10,11,01,05,12.90
2015,10,11,01,06,12.90
2015,10,11,01,07,12.90
2015,10,11,01,08,12.90
2015,10,11,01,09,12.90
2015,10,11,01,10,13.00
2015,10,11,01,11,13.00
2015,10,11,01,12,12.90
2015,10,11,01,13,12.90
2015,10,11,01,14,12.90
2015,10,11,01,15,12.90
2015,10,11,01,16,12.90
2015,10,11,01,17,12.90
2015,10,11,01,18,12.90
2015,10,11,01,19,12.90
2015,10,11,01,20,12.90
2015,10,11,01,21,12.90
2015,10,11,01,22,12.90
2015,10,11,01,23,12.90
2015,10,11,01,24,12.90
2015,10,11,01,25,12.90
2015,10,11,01,26,12.90
2015,10,11,01,27,12.80
2015,10,11,01,28,12.80
2015,10,11,01,29,12.80
2015,10,11,01,30,12.80
2015,10,11,01,31,12.80
2015,10,11,01,32,12.80
2015,10,11,01,33,12.80
2015,10,11,01,34,12.80
2015,10,11,01,35,12.80
2015,10,11,01,36,12.80
2015,10,11,01,37,12.70
2015,10,11,01,38,12.70
2015,10,11,01,39,12.70
2015,10,11,01,40,12.70
2015,10,11,01,41,12.70
2015,10,11,01,42,12.70
2015,10,11,01,43,12.70
2015,10,11,01,44,12.70
2015,10,11,01,45,12.70
2015,10,11,01,46,12.70
2015,10,11,01,47,12.70
2015,10,11,01,48,12.70
2015,10,11,01,49,12.70
2015,10,11,01,50,12.70
2015,10,11,01,51,12.60
2015,10,11,01,52,12.60
2015,10,11,01,53,12.60
2015,10,11,01,54,12.60
2015,10,11,01,55,12.60
2015,10,11,01,56,12.60
2015,10,11,01,57,12.60
2015,10,11,01,58,12.60
2015,10,11,01,59,12.60
2015,10,11,02,00,12.60
2015,10,11,02,01,12.60
2015,10,11,02,02,12.60
2015,10,11,02,03,12.60
2015,10,11,02,04,12.60
2015,10,11,02,05,12.60
2015,10,11,02,06,12.60
2015,10,11,02,07,12.60
2015,10,11,02,08,12.60
2015,10,11,02,09,12.60
2015,10,11,02,10,12.60
2015,10,11,02,11,12.60
2015,10,11,02,12,12.60
2015,10,11,02,13,12.60
2015,10,11,02,14,12.60
2015,10,11,02,15,12.60
2015,10,11,02,16,12.60
2015,10,11,02,17,12.60
2015,10,11,02,18,12.60
2015,10,11,02,19,12.60
2015,10,11,02,20,12.60
2015,10,11,02,21,12.60
2015,10,11,02,22,12.60
2015,10,11,02,23,12.60
2015,10,11,02,24,12.60
2015,10,11,02,25,12.60
2015,10,11,02,26,12.60
2015,10,11,02,27,12.60
2015,10,11,02,28,12.60
2015,10,11,02,29,12.60
2015,10,11,02,30,12.60
2015,10,11,02,31,12.60
2015,10,11,02,32,12.60
2015,10,11,02,33,12.60
2015,10,11,02,34,12.60
2015,10,11,02,35,12.60
2015,10,11,02,36,12.60
2015,10,11,02,37,12.70
2015,10,11,02,38,12.70
2015,10,11,02,39,12.70
2015,10,11,02,40,12.70
2015,10,11,02,41,12.70
2015,10,11,02,42,12.70
2015,10,11,02,43,12.70
2015,10,11,02,44,12.70
2015,10,11,02,45,12.70
2015,10,11,02,46,12.70
2015,10,11,02,47,12.70
2015,10,11,02,48,12.70
2015,10,11,02,49,12.70
2015,10,11,02,50,12.70
2015,10,11,02,51,12.70
2015,10,11,02,52,12.70
2015,10,11,02,53,12.70
2015,10,11,02,54,12.70
2015,10,11,02,55,12.70
2015,10,11,02,56,12.70
2015,10,11,02,57,12.70
2015,10,11,02,58,12.70
2015,10,11,02,59,12.70
2015,10,11,03,00,12.70
2015,10,11,03,01,12.70
2015,10,11,03,02,12.70
2015,10,11,03,03,12.70
2015,10,11,03,04,12.70
2015,10,11,03,05,12.70
2015,10,11,03,06,12.60
2015,10,11,03,07,12.60
2015,10,11,03,08,12.60
2015,10,11,03,09,12.60
2015,10,11,03,10,12.60
2015,10,11,03,11,12.60
2015,10,11,03,12,12.50
2015,10,11,03,13,12.50
2015,10,11,03,14,12.50
2015,10,11,03,15,12.50
2015,10,11,03,16,12.50
2015,10,11,03,17,12.50
2015,10,11,03,18,12.50
2015,10,11,03,19,12.40
2015,10,11,03,20,12.40
2015,10,11,03,21,12.40
2015,10,11,03,22,12.40
2015,10,11,03,23,12.40
2015,10,11,03,24,12.40
2015,10,11,03,25,12.40
2015,10,11,03,26,12.30
2015,10,11,03,27,12.30
2015,10,11,03,28,12.30
2015,10,11,03,29,12.30
2015,10,11,03,30,12.30
2015,10,11,03,31,12.30
2015,10,11,03,32,12.30
2015,10,11,03,33,12.30
2015,10,11,03,34,12.30
2015,10,11,03,35,12.30
2015,10,11,03,36,12.30
2015,10,11,03,37,12.30
2015,10,11,03,38,12.30
2015,10,11,03,39,12.30
2015,10,11,03,40,12.30
2015,10,11,03,41,12.30
2015,10,11,03,42,12.30
2015,10,11,03,43,12.30
2015,10,11,03,44,12.30
2015,10,11,03,45,12.30
2015,10,11,03,46,12.30
2015,10,11,03,47,12.20
2015,10,11,03,48,12.20
2015,10,11,03,49,12.20
2015,10,11,03,50,12.20
2015,10,11,03,51,12.20
2015,10,11,03,52,12.20
2015,10,11,03,53,12.20
2015,10,11,03,54,12.20
2015,10,11,03,55,12.20
2015,10,11,03,56,12.20
2015,10,11,03,57,12.20
2015,10,11,03,58,12.20
2015,10,11,03,59,12.20
2015,10,11,04,00,12.20
2015,10,11,04,01,12.20
2015,10,11,04,02,12.20
2015,10,11,04,03,12.20
2015,10,11,04,04,12.20
2015,10,11,04,05,12.20
2015,10,11,04,06,12.20
2015,10,11,04,07,12.20
2015,10,11,04,08,12.20
2015,10,11,04,09,12.20
2015,10,11,04,10,12.20
2015,10,11,04,11,12.20
2015,10,11,04,12,12.20
2015,10,11,04,13,12.20
2015,10,11,04,14,12.20
2015,10,11,04,15,12.20
2015,10,11,04,16,12.20
2015,10,11,04,17,12.20
2015,10,11,04,18,12.20
2015,10,11,04,19,12.20
2015,10,11,04,20,12.20
2015,10,11,04,21,12.20
2015,10,11,04,22,12.20
2015,10,11,04,23,12.20
2015,10,11,04,24,12.20
2015,10,11,04,25,12.20
2015,10,11,04,26,12.20
2015,10,11,04,27,12.20
2015,10,11,04,28,12.20
2015,10,11,04,29,12.20
2015,10,11,04,30,12.20
2015,10,11,04,31,12.20
2015,10,11,04,32,12.20
2015,10,11,04,33,12.20
2015,10,11,04,34,12.20
2015,10,11,04,35,12.20
2015,10,11,04,36,12.20
2015,10,11,04,37,12.20
2015,10,11,04,38,12.20
2015,10,11,04,39,12.20
2015,10,11,04,40,12.20
2015,10,11,04,41,12.20
2015,10,11,04,42,12.20
2015,10,11,04,43,12.20
2015,10,11,04,44,12.20
2015,10,11,04,45,12.20
2015,10,11,04,46,12.10
2015,10,11,04,47,12.10
2015,10,11,04,48,12.10
2015,10,11,04,49,12.10
2015,10,11,04,50,12.10
2015,10,11,04,51,12.20
2015,10,11,04,52,12.20
2015,10,11,04,53,12.20
2015,10,11,04,54,12.20
2015,10,11,04,55,12.20
2015,10,11,04,56,12.20
2015,10,11,04,57,12.20
2015,10,11,04,58,12.20
2015,10,11,04,59,12.20
2015,10,11,05,00,12.20
2015,10,11,05,01,12.20
2015,10,11,05,02,12.20
2015,10,11,05,03,12.20
2015,10,11,05,04,12.20
2015,10,11,05,05,12.20
2015,10,11,05,06,12.20
2015,10,11,05,07,12.20
2015,10,11,05,08,12.20
2015,10,11,05,09,12.20
2015,10,11,05,10,12.20
2015,10,11,05,11,12.20
2015,10,11,05,12,12.20
2015,10,11,05,13,12.20
2015,10,11,05,14,12.20
2015,10,11,05,15,12.10
2015,10,11,05,16,12.10
2015,10,11,05,17,12.10
2015,10,11,05,18,12.10
2015,10,11,05,19,12.10
2015,10,11,05,20,12.10
2015,10,11,05,21,12.10
2015,10,11,05,22,12.00
2015,10,11,05,23,12.00
2015,10,11,05,24,12.00
2015,10,11,05,25,11.90
2015,10,11,05,26,11.90
2015,10,11,05,27,11.90
2015,10,11,05,28,11.80
2015,10,11,05,29,11.80
2015,10,11,05,30,11.70
2015,10,11,05,31,11.70
2015,10,11,05,32,11.60
2015,10,11,05,33,11.60
2015,10,11,05,34,11.50
2015,10,11,05,35,11.50
2015,10,11,05,36,11.40
2015,10,11,05,37,11.40
2015,10,11,05,38,11.40
2015,10,11,05,39,11.30
2015,10,11,05,40,11.30
2015,10,11,05,41,11.30
2015,10,11,05,42,11.20
2015,10,11,05,43,11.20
2015,10,11,05,44,11.10
2015,10,11,05,45,11.10
2015,10,11,05,46,11.10
2015,10,11,05,47,11.00
2015,10,11,05,48,11.00
2015,10,11,05,49,10.90
2015,10,11,05,50,10.90
2015,10,11,05,51,10.90
2015,10,11,05,52,10.90
2015,10,11,05,53,10.80
2015,10,11,05,54,10.80
2015,10,11,05,55,10.80
2015,10,11,05,56,10.80
2015,10,11,05,57,10.70
2015,10,11,05,58,10.70
2015,10,11,05,59,10.70
2015,10,11,06,00,10.60
2015,10,11,06,01,10.60
2015,10,11,06,02,10.60
2015,10,11,06,03,10.60
2015,10,11,06,04,10.60
2015,10,11,06,05,10.60
2015,10,11,06,06,10.60
2015,10,11,06,07,10.60
2015,10,11,06,08,10.60
2015,10,11,06,09,10.50
2015,10,11,06,10,10.50
2015,10,11,06,11,10.50
2015,10,11,06,12,10.50
2015,10,11,06,13,10.40
2015,10,11,06,14,10.40
2015,10,11,06,15,10.40
2015,10,11,06,16,10.40
2015,10,11,06,17,10.30
2015,10,11,06,18,10.30
2015,10,11,06,19,10.30
2015,10,11,06,20,10.30
2015,10,11,06,21,10.30
2015,10,11,06,22,10.30
2015,10,11,06,23,10.30
2015,10,11,06,24,10.30
2015,10,11,06,25,10.30
2015,10,11,06,26,10.30
2015,10,11,06,27,10.30
2015,10,11,06,28,10.30
2015,10,11,06,29,10.30
2015,10,11,06,30,10.30
2015,10,11,06,31,10.30
2015,10,11,06,32,10.30
2015,10,11,06,33,10.20
2015,10,11,06,34,10.20
2015,10,11,06,35,10.20
2015,10,11,06,36,10.20
2015,10,11,06,37,10.20
2015,10,11,06,38,10.20
2015,10,11,06,39,10.20
2015,10,11,06,40,10.20
2015,10,11,06,41,10.20
2015,10,11,06,42,10.20
2015,10,11,06,43,10.20
2015,10,11,06,44,10.30
2015,10,11,06,45,10.30
2015,10,11,06,46,10.30
2015,10,11,06,47,10.30
2015,10,11,06,48,10.30
2015,10,11,06,49,10.30
2015,10,11,06,50,10.30
2015,10,11,06,51,10.30
2015,10,11,06,52,10.30
2015,10,11,06,53,10.30
2015,10,11,06,54,10.30
2015,10,11,06,55,10.30
2015,10,11,06,56,10.30
2015,10,11,06,57,10.30
2015,10,11,06,58,10.20
2015,10,11,06,59,10.30
2015,10,11,07,00,10.20
2015,10,11,07,01,10.20
2015,10,11,07,02,10.20
2015,10,11,07,03,10.20
2015,10,11,07,04,10.20
2015,10,11,07,05,10.20
2015,10,11,07,06,10.20
2015,10,11,07,07,10.20
2015,10,11,07,08,10.20
2015,10,11,07,09,10.20
2015,10,11,07,10,10.20
2015,10,11,07,11,10.20
2015,10,11,07,12,10.20
2015,10,11,07,13,10.10
2015,10,11,07,14,10.10
2015,10,11,07,15,10.10
2015,10,11,07,16,10.00
2015,10,11,07,17,10.00
2015,10,11,07,18,10.00
2015,10,11,07,19,9.90
2015,10,11,07,20,9.90
2015,10,11,07,21,9.90
2015,10,11,07,22,9.80
2015,10,11,07,23,9.80
2015,10,11,07,24,9.80
2015,10,11,07,25,9.80
2015,10,11,07,26,9.80
2015,10,11,07,27,9.70
2015,10,11,07,28,9.70
2015,10,11,07,29,9.70
2015,10,11,07,30,9.70
2015,10,11,07,31,9.70
2015,10,11,07,32,9.70
2015,10,11,07,33,9.70
2015,10,11,07,34,9.80
2015,10,11,07,35,9.80
2015,10,11,07,36,9.80
2015,10,11,07,37,9.80
2015,10,11,07,38,9.80
2015,10,11,07,39,9.80
2015,10,11,07,40,9.80
2015,10,11,07,41,9.80
2015,10,11,07,42,9.80
2015,10,11,07,43,9.80
2015,10,11,07,44,9.80
2015,10,11,07,45,9.80
2015,10,11,07,46,9.80
2015,10,11,07,47,9.70
2015,10,11,07,48,9.70
2015,10,11,07,49,9.70
2015,10,11,07,50,9.70
2015,10,11,07,51,9.70
2015,10,11,07,52,9.70
2015,10,11,07,53,9.70
2015,10,11,07,54,9.70
2015,10,11,07,55,9.70
2015,10,11,07,56,9.70
2015,10,11,07,57,9.70
2015,10,11,07,58,9.60
2015,10,11,07,59,9.60
2015,10,11,08,00,9.60
2015,10,11,08,01,9.60
2015,10,11,08,02,9.60
2015,10,11,08,03,9.60
2015,10,11,08,04,9.60
2015,10,11,08,05,9.60
2015,10,11,08,06,9.60
2015,10,11,08,07,9.60
2015,10,11,08,08,9.60
2015,10,11,08,09,9.60
2015,10,11,08,10,9.60
2015,10,11,08,11,9.60
2015,10,11,08,12,9.60
2015,10,11,08,13,9.60
2015,10,11,08,14,9.60
2015,10,11,08,15,9.60
2015,10,11,08,16,9.60
2015,10,11,08,17,9.70
2015,10,11,08,18,9.70
2015,10,11,08,19,9.70
2015,10,11,08,20,9.70
2015,10,11,08,21,9.70
2015,10,11,08,22,9.80
2015,10,11,08,23,9.80
2015,10,11,08,24,9.80
2015,10,11,08,25,9.80
2015,10,11,08,26,9.90
2015,10,11,08,27,9.90
2015,10,11,08,28,9.90
2015,10,11,08,29,10.00
2015,10,11,08,30,10.00
2015,10,11,08,31,10.10
2015,10,11,08,32,10.10
2015,10,11,08,33,10.20
2015,10,11,08,34,10.20
2015,10,11,08,35,10.30
2015,10,11,08,36,10.30
2015,10,11,08,37,10.40
2015,10,11,08,38,10.40
2015,10,11,08,39,10.40
2015,10,11,08,40,10.50
2015,10,11,08,41,10.50
2015,10,11,08,42,10.60
2015,10,11,08,43,10.60
2015,10,11,08,44,10.60
2015,10,11,08,45,10.70
2015,10,11,08,46,10.70
2015,10,11,08,47,10.70
2015,10,11,08,48,10.80
2015,10,11,08,49,10.80
2015,10,11,08,50,10.80
2015,10,11,08,51,10.90
2015,10,11,08,52,10.90
2015,10,11,08,53,10.90
2015,10,11,08,54,11.00
2015,10,11,08,55,11.00
2015,10,11,08,56,11.00
2015,10,11,08,57,11.10
2015,10,11,08,58,11.10
2015,10,11,08,59,11.10
2015,10,11,09,00,11.20
2015,10,11,09,01,11.20
2015,10,11,09,02,11.20
2015,10,11,09,03,11.30
2015,10,11,09,04,11.30
2015,10,11,09,05,11.30
2015,10,11,09,06,11.30
2015,10,11,09,07,11.40
2015,10,11,09,08,11.40
2015,10,11,09,09,11.40
2015,10,11,09,10,11.40
2015,10,11,09,11,11.50
2015,10,11,09,12,11.50
2015,10,11,09,13,11.60
2015,10,11,09,14,11.60
2015,10,11,09,15,11.60
2015,10,11,09,16,11.70
2015,10,11,09,17,11.70
2015,10,11,09,18,11.80
2015,10,11,09,19,11.80
2015,10,11,09,20,11.80
2015,10,11,09,21,11.90
2015,10,11,09,22,11.90
2015,10,11,09,23,12.00
2015,10,11,09,24,12.10
2015,10,11,09,25,12.10
2015,10,11,09,26,12.20
2015,10,11,09,27,12.30
2015,10,11,09,28,12.30
2015,10,11,09,29,12.40
2015,10,11,09,30,12.40
2015,10,11,09,31,12.50
2015,10,11,09,32,12.50
2015,10,11,09,33,12.60
2015,10,11,09,34,12.60
2015,10,11,09,35,12.70
2015,10,11,09,36,12.70
2015,10,11,09,37,12.70
2015,10,11,09,38,12.80
2015,10,11,09,39,12.80
2015,10,11,09,40,12.80
2015,10,11,09,41,12.80
2015,10,11,09,42,12.80
2015,10,11,09,43,12.90
2015,10,11,09,44,12.90
2015,10,11,09,45,12.90
2015,10,11,09,46,12.90
2015,10,11,09,47,13.00
2015,10,11,09,48,13.00
2015,10,11,09,49,13.00
2015,10,11,09,50,13.00
2015,10,11,09,51,13.10
2015,10,11,09,52,13.10
2015,10,11,09,53,13.10
2015,10,11,09,54,13.10
2015,10,11,09,55,13.10
2015,10,11,09,56,13.10
2015,10,11,09,57,13.10
2015,10,11,09,58,13.20
2015,10,11,09,59,13.20
2015,10,11,10,00,13.20
2015,10,11,10,01,13.20
2015,10,11,10,02,13.20
2015,10,11,10,03,13.20
2015,10,11,10,04,13.20
2015,10,11,10,05,13.10
2015,10,11,10,06,13.10
2015,10,11,10,07,13.20
2015,10,11,10,08,13.20
2015,10,11,10,09,13.20
2015,10,11,10,10,13.20
2015,10,11,10,11,13.20
2015,10,11,10,12,13.20
2015,10,11,10,13,13.20
2015,10,11,10,14,13.20
2015,10,11,10,15,13.20
2015,10,11,10,16,13.20
2015,10,11,10,17,13.30
2015,10,11,10,18,13.30
2015,10,11,10,19,13.30
2015,10,11,10,20,13.30
2015,10,11,10,21,13.30
2015,10,11,10,22,13.30
2015,10,11,10,23,13.30
2015,10,11,10,24,13.30
2015,10,11,10,25,13.20
2015,10,11,10,26,13.20
2015,10,11,10,27,13.20
2015,10,11,10,28,13.20
2015,10,11,10,29,13.20
2015,10,11,10,30,13.10
2015,10,11,10,31,13.10
2015,10,11,10,32,13.10
2015,10,11,10,33,13.10
2015,10,11,10,34,13.10
2015,10,11,10,35,13.00
2015,10,11,10,36,13.00
2015,10,11,10,37,12.90
2015,10,11,10,38,12.90
2015,10,11,10,39,12.90
2015,10,11,10,40,12.80
2015,10,11,10,41,12.80
2015,10,11,10,42,12.80
2015,10,11,10,43,12.80
2015,10,11,10,44,12.80
2015,10,11,10,45,12.80
2015,10,11,10,46,12.80
2015,10,11,10,47,12.80
2015,10,11,10,48,12.80
2015,10,11,10,49,12.80
2015,10,11,10,50,12.80
2015,10,11,10,51,12.80
2015,10,11,10,52,12.80
2015,10,11,10,53,12.80
2015,10,11,10,54,12.90
2015,10,11,10,55,12.90
2015,10,11,10,56,12.90
2015,10,11,10,57,12.90
2015,10,11,10,58,13.00
2015,10,11,10,59,13.00
2015,10,11,11,00,13.00
2015,10,11,11,01,13.10
2015,10,11,11,02,13.10
2015,10,11,11,03,13.10
2015,10,11,11,04,13.10
2015,10,11,11,05,13.10
2015,10,11,11,06,13.20
2015,10,11,11,07,13.20
2015,10,11,11,08,13.20
2015,10,11,11,09,13.30
2015,10,11,11,10,13.30
2015,10,11,11,11,13.40
2015,10,11,11,12,13.40
2015,10,11,11,13,13.40
2015,10,11,11,14,13.40
2015,10,11,11,15,13.40
2015,10,11,11,16,13.40
2015,10,11,11,17,13.40
2015,10,11,11,18,13.40
2015,10,11,11,19,13.40
2015,10,11,11,20,13.40
2015,10,11,11,21,13.40
2015,10,11,11,22,13.40
2015,10,11,11,23,13.50
2015,10,11,11,24,13.50
2015,10,11,11,25,13.60
2015,10,11,11,26,13.60
2015,10,11,11,27,13.60
2015,10,11,11,28,13.60
2015,10,11,11,29,13.60
2015,10,11,11,30,13.60
2015,10,11,11,31,13.60
2015,10,11,11,32,13.60
2015,10,11,11,33,13.60
2015,10,11,11,34,13.60
2015,10,11,11,35,13.60
2015,10,11,11,36,13.60
2015,10,11,11,37,13.60
2015,10,11,11,38,13.60
2015,10,11,11,39,13.70
2015,10,11,11,40,13.80
2015,10,11,11,41,13.80
2015,10,11,11,42,13.90
2015,10,11,11,43,13.90
2015,10,11,11,44,13.90
2015,10,11,11,45,13.90
2015,10,11,11,46,13.90
2015,10,11,11,47,13.90
2015,10,11,11,48,13.90
2015,10,11,11,49,13.90
2015,10,11,11,50,13.90
2015,10,11,11,51,13.90
2015,10,11,11,52,13.90
2015,10,11,11,53,13.90
2015,10,11,11,54,13.90
2015,10,11,11,55,13.90
2015,10,11,11,56,13.90
2015,10,11,11,57,13.90
2015,10,11,11,58,13.90
2015,10,11,11,59,13.90
2015,10,11,12,00,13.90
2015,10,11,12,01,13.90
2015,10,11,12,02,13.90
2015,10,11,12,03,13.90
2015,10,11,12,04,13.90
2015,10,11,12,05,14.00
2015,10,11,12,06,14.10
2015,10,11,12,07,14.20
2015,10,11,12,08,14.20
2015,10,11,12,09,14.30
2015,10,11,12,10,14.30
2015,10,11,12,11,14.40
2015,10,11,12,12,14.40
2015,10,11,12,13,14.40
2015,10,11,12,14,14.40
2015,10,11,12,15,14.40
2015,10,11,12,16,14.30
2015,10,11,12,17,14.30
2015,10,11,12,18,14.30
2015,10,11,12,19,14.20
2015,10,11,12,20,14.20
2015,10,11,12,21,14.20
2015,10,11,12,22,14.20
2015,10,11,12,23,14.20
2015,10,11,12,24,14.20
2015,10,11,12,25,14.20
2015,10,11,12,26,14.30
2015,10,11,12,27,14.30
2015,10,11,12,28,14.30
2015,10,11,12,29,14.30
2015,10,11,12,30,14.30
2015,10,11,12,31,14.30
2015,10,11,12,32,14.30
2015,10,11,12,33,14.20
2015,10,11,12,34,14.20
2015,10,11,12,35,14.20
2015,10,11,12,36,14.20
2015,10,11,12,37,14.20
2015,10,11,12,38,14.20
2015,10,11,12,39,14.20
2015,10,11,12,40,14.20
2015,10,11,12,41,14.20
2015,10,11,12,42,14.20
2015,10,11,12,43,14.30
2015,10,11,12,44,14.30
2015,10,11,12,45,14.40
2015,10,11,12,46,14.40
2015,10,11,12,47,14.40
2015,10,11,12,48,14.50
2015,10,11,12,49,14.60
2015,10,11,12,50,14.60
2015,10,11,12,51,14.70
2015,10,11,12,52,14.70
2015,10,11,12,53,14.70
2015,10,11,12,54,14.80
2015,10,11,12,55,14.90
2015,10,11,12,56,14.90
2015,10,11,12,57,15.00
2015,10,11,12,58,15.10
2015,10,11,12,59,15.10
2015,10,11,13,00,15.20
2015,10,11,13,01,15.30
2015,10,11,13,02,15.30
2015,10,11,13,03,15.30
2015,10,11,13,04,15.30
2015,10,11,13,05,15.40
2015,10,11,13,06,15.40
2015,10,11,13,07,15.50
2015,10,11,13,08,15.50
2015,10,11,13,09,15.50
2015,10,11,13,10,15.40
2015,10,11,13,11,15.30
2015,10,11,13,12,15.30
2015,10,11,13,13,15.20
2015,10,11,13,14,15.10
2015,10,11,13,15,15.00
2015,10,11,13,16,15.00
2015,10,11,13,17,14.90
2015,10,11,13,18,14.80
2015,10,11,13,19,14.80
2015,10,11,13,20,14.80
2015,10,11,13,21,14.70
2015,10,11,13,22,14.70
2015,10,11,13,23,14.70
2015,10,11,13,24,14.80
2015,10,11,13,25,14.80
2015,10,11,13,26,14.80
2015,10,11,13,27,14.80
2015,10,11,13,28,14.80
2015,10,11,13,29,14.70
2015,10,11,13,30,14.70
2015,10,11,13,31,14.70
2015,10,11,13,32,14.70
2015,10,11,13,33,14.70
2015,10,11,13,34,14.70
2015,10,11,13,35,14.70
2015,10,11,13,36,14.70
2015,10,11,13,37,14.70
2015,10,11,13,38,14.70
2015,10,11,13,39,14.60
2015,10,11,13,40,14.60
2015,10,11,13,41,14.60
2015,10,11,13,42,14.60
2015,10,11,13,43,14.60
2015,10,11,13,44,14.60
2015,10,11,13,45,14.60
2015,10,11,13,46,14.60
2015,10,11,13,47,14.60
2015,10,11,13,48,14.60
2015,10,11,13,49,14.60
2015,10,11,13,50,14.60
2015,10,11,13,51,14.60
2015,10,11,13,52,14.60
2015,10,11,13,53,14.60
2015,10,11,13,54,14.50
2015,10,11,13,55,14.50
2015,10,11,13,56,14.40
2015,10,11,13,57,14.40
2015,10,11,13,58,14.40
2015,10,11,13,59,14.40
2015,10,11,14,00,14.40
2015,10,11,14,01,14.40
2015,10,11,14,02,14.40
2015,10,11,14,03,14.40
2015,10,11,14,04,14.40
2015,10,11,14,05,14.50
2015,10,11,14,06,14.50
2015,10,11,14,07,14.60
2015,10,11,14,08,14.60
2015,10,11,14,09,14.60
2015,10,11,14,10,14.60
2015,10,11,14,11,14.60
2015,10,11,14,12,14.60
2015,10,11,14,13,14.60
2015,10,11,14,14,14.60
2015,10,11,14,15,14.60
2015,10,11,14,16,14.60
2015,10,11,14,17,14.60
2015,10,11,14,18,14.60
2015,10,11,14,19,14.60
2015,10,11,14,20,14.60
2015,10,11,14,21,14.60
2015,10,11,14,22,14.60
2015,10,11,14,23,14.60
2015,10,11,14,24,14.60
2015,10,11,14,25,14.70
2015,10,11,14,26,14.70
2015,10,11,14,27,14.70
2015,10,11,14,28,14.80
2015,10,11,14,29,14.80
2015,10,11,14,30,14.80
2015,10,11,14,31,14.80
2015,10,11,14,32,14.90
2015,10,11,14,33,14.90
2015,10,11,14,34,14.90
2015,10,11,14,35,14.90
2015,10,11,14,36,14.90
2015,10,11,14,37,14.90
2015,10,11,14,38,14.90
2015,10,11,14,39,14.90
2015,10,11,14,40,14.90
2015,10,11,14,41,14.90
2015,10,11,14,42,15.00
2015,10,11,14,43,15.00
2015,10,11,14,44,15.00
2015,10,11,14,45,15.00
2015,10,11,14,46,15.00
2015,10,11,14,47,15.00
2015,10,11,14,48,15.00
2015,10,11,14,49,15.00
2015,10,11,14,50,15.10
2015,10,11,14,51,15.10
2015,10,11,14,52,15.10
2015,10,11,14,53,15.10
2015,10,11,14,54,15.10
2015,10,11,14,55,15.10
2015,10,11,14,56,15.10
2015,10,11,14,57,15.10
2015,10,11,14,58,15.10
2015,10,11,14,59,15.10
2015,10,11,15,00,15.10
2015,10,11,15,01,15.10
2015,10,11,15,02,15.10
2015,10,11,15,03,15.10
2015,10,11,15,04,15.10
2015,10,11,15,05,15.10
2015,10,11,15,06,15.10
2015,10,11,15,07,15.10
2015,10,11,15,08,15.10
2015,10,11,15,09,15.10
2015,10,11,15,10,15.10
2015,10,11,15,11,15.10
2015,10,11,15,12,15.10
2015,10,11,15,13,15.10
2015,10,11,15,14,15.10
2015,10,11,15,15,15.10
2015,10,11,15,16,15.00
2015,10,11,15,17,15.00
2015,10,11,15,18,15.00
2015,10,11,15,19,15.00
2015,10,11,15,20,14.90
2015,10,11,15,21,14.90
2015,10,11,15,22,14.90
2015,10,11,15,23,14.90
2015,10,11,15,24,14.80
2015,10,11,15,25,14.80
2015,10,11,15,26,14.80
2015,10,11,15,27,14.80
2015,10,11,15,28,14.80
2015,10,11,15,29,14.80
2015,10,11,15,30,14.80
2015,10,11,15,31,14.70
2015,10,11,15,32,14.70
2015,10,11,15,33,14.70
2015,10,11,15,34,14.70
2015,10,11,15,35,14.70
2015,10,11,15,36,14.70
2015,10,11,15,37,14.70
2015,10,11,15,38,14.70
2015,10,11,15,39,14.70
2015,10,11,15,40,14.70
2015,10,11,15,41,14.70
2015,10,11,15,42,14.70
2015,10,11,15,43,14.70
2015,10,11,15,44,14.70
2015,10,11,15,45,14.70
2015,10,11,15,46,14.70
2015,10,11,15,47,14.70
2015,10,11,15,48,14.70
2015,10,11,15,49,14.70
2015,10,11,15,50,14.70
2015,10,11,15,51,14.70
2015,10,11,15,52,14.70
2015,10,11,15,53,14.70
2015,10,11,15,54,14.70
2015,10,11,15,55,14.70
2015,10,11,15,56,14.70
2015,10,11,15,57,14.70
2015,10,11,15,58,14.70
2015,10,11,15,59,14.70
2015,10,11,16,00,14.70
2015,10,11,16,01,14.70
2015,10,11,16,02,14.70
2015,10,11,16,03,14.80
2015,10,11,16,04,14.80
2015,10,11,16,05,14.80
2015,10,11,16,06,14.80
2015,10,11,16,07,14.80
2015,10,11,16,08,14.80
2015,10,11,16,09,14.70
2015,10,11,16,10,14.70
2015,10,11,16,11,14.70
2015,10,11,16,12,14.70
2015,10,11,16,13,14.70
2015,10,11,16,14,14.60
2015,10,11,16,15,14.60
2015,10,11,16,16,14.60
2015,10,11,16,17,14.60
2015,10,11,16,18,14.60
2015,10,11,16,19,14.60
2015,10,11,16,20,14.60
2015,10,11,16,21,14.60
2015,10,11,16,22,14.60
2015,10,11,16,23,14.60
2015,10,11,16,24,14.60
2015,10,11,16,25,14.60
2015,10,11,16,26,14.60
2015,10,11,16,27,14.60
2015,10,11,16,28,14.60
2015,10,11,16,29,14.60
2015,10,11,16,30,14.60
2015,10,11,16,31,14.60
2015,10,11,16,32,14.60
2015,10,11,16,33,14.60
2015,10,11,16,34,14.60
2015,10,11,16,35,14.60
2015,10,11,16,36,14.60
2015,10,11,16,37,14.60
2015,10,11,16,38,14.60
2015,10,11,16,39,14.60
2015,10,11,16,40,14.60
2015,10,11,16,41,14.60
2015,10,11,16,42,14.60
2015,10,11,16,43,14.60
2015,10,11,16,44,14.60
2015,10,11,16,45,14.60
2015,10,11,16,46,14.60
2015,10,11,16,47,14.60
2015,10,11,16,48,14.60
2015,10,11,16,49,14.60
2015,10,11,16,50,14.60
2015,10,11,16,51,14.60
2015,10,11,16,52,14.60
2015,10,11,16,53,14.60
2015,10,11,16,54,14.60
2015,10,11,16,55,14.60
2015,10,11,16,56,14.60
2015,10,11,16,57,14.60
2015,10,11,16,58,14.60
2015,10,11,16,59,14.50
2015,10,11,17,00,14.50
2015,10,11,17,01,14.50
2015,10,11,17,02,14.50
2015,10,11,17,03,14.50
2015,10,11,17,04,14.50
2015,10,11,17,05,14.40
2015,10,11,17,06,14.40
2015,10,11,17,07,14.40
2015,10,11,17,08,14.40
2015,10,11,17,09,14.30
2015,10,11,17,10,14.30
2015,10,11,17,11,14.30
2015,10,11,17,12,14.30
2015,10,11,17,13,14.30
2015,10,11,17,14,14.30
2015,10,11,17,15,14.20
2015,10,11,17,16,14.20
2015,10,11,17,17,14.20
2015,10,11,17,18,14.10
2015,10,11,17,19,14.10
2015,10,11,17,20,14.00
2015,10,11,17,21,14.00
2015,10,11,17,22,13.90